Fond du Lac, WI

9:45 AM CDT on April 22, 2018 (GMT -0500)
Fond du Lac County

Weather History for KFLD - May, 2013

Change the Weather History Date:

Friday, May 24, 2013

  Actual Average Record
Temperature  
Mean Temperature 48 °F -  
Max Temperature 61 °F 70 °F 92 °F (1950)
Min Temperature 36 °F 51 °F 35 °F (1956)
Degree Days  
Heating Degree Days 17    
Moisture  
Dew Point 35 °F    
Average Humidity 59    
Maximum Humidity 86    
Minimum Humidity 47    
Precipitation  
Precipitation 0.00 in - - ()
Sea Level Pressure  
Sea Level Pressure 30.40 in    
Wind  
Wind Speed 6 mph (ENE)    
Max Wind Speed 10 mph    
Max Gust Speed -    
Visibility 10 miles    
Events      
Averages and records for this station are not official NWS values.
T = Trace of Precipitation, MM = Missing Value Source: NWS Daily Summary

Daily Weather History Graph

Daily Weather History Graph

Search for Another Location

Airport or City:

Astronomy

May. 24, 2013 Rise Set
Actual Time 5:19 AM CDT 8:22 PM CDT
Civil Twilight 4:45 AM CDT 8:56 PM CDT
Nautical Twilight 4:01 AM CDT 9:40 PM CDT
Astronomical Twilight 3:09 AM CDT 10:33 PM CDT
Moon 8:03 PM CDT (5/24) 4:53 AM CDT (5/24)
Length of Visible Light 16h 11m
Length of Day
15h 02m
Full, 100% of the Moon is Illuminated
May 24
Full
May 24
Full
May 31
Last Quarter
Jun 8
New
Jun 16
First Quarter

Hourly Weather History & Observations

Time (CDT) Temp. Windchill Dew Point Humidity Pressure Visibility Wind Dir Wind Speed Gust Speed Precip Events Conditions
12:53 AM 41.0 °F 36.4 °F 32.0 °F 70% 30.35 in 10.0 mi ENE 6.9 mph - N/A   Clear
1:53 AM 41.0 °F 37.1 °F 30.9 °F 67% 30.35 in 10.0 mi NE 5.8 mph - N/A   Clear
2:53 AM 41.0 °F 38.0 °F 30.0 °F 65% 30.37 in 10.0 mi ENE 4.6 mph - N/A   Clear
3:53 AM 39.9 °F 36.7 °F 30.0 °F 68% 30.37 in 10.0 mi East 4.6 mph - N/A   Clear
4:53 AM 36.0 °F 33.3 °F 32.0 °F 86% 30.39 in 10.0 mi WSW 3.5 mph - N/A   Clear
5:53 AM 37.0 °F - 32.0 °F 82% 30.40 in 10.0 mi Calm Calm - N/A   Clear
6:53 AM 44.1 °F 39.0 °F 32.0 °F 63% 30.42 in 10.0 mi NE 9.2 mph - N/A   Clear
7:53 AM 46.0 °F 41.4 °F 30.0 °F 54% 30.44 in 10.0 mi NE 9.2 mph - N/A   Clear
8:53 AM 48.0 °F - 30.9 °F 52% 30.47 in 10.0 mi North 3.5 mph - N/A   Clear
9:53 AM 50.0 °F - 30.9 °F 48% 30.47 in 10.0 mi NNE 6.9 mph - N/A   Clear
10:53 AM 51.1 °F - 34.0 °F 52% 30.47 in 10.0 mi NNE 6.9 mph - N/A   Clear
11:16 AM 51.8 °F - 33.8 °F 50% 30.44 in 1.2 mi NNE 9.2 mph - N/A   Haze
11:24 AM 51.8 °F - 33.8 °F 50% 30.44 in 10.0 mi Calm Calm - N/A   Clear
11:53 AM 51.1 °F - 36.0 °F 56% 30.46 in 10.0 mi Variable 4.6 mph - N/A   Clear
12:53 PM 53.1 °F - 35.1 °F 50% 30.45 in 10.0 mi Variable 6.9 mph - N/A   Clear
1:53 PM 55.9 °F - 37.0 °F 49% 30.43 in 10.0 mi NNE 8.1 mph - N/A   Clear
2:53 PM 57.0 °F - 37.9 °F 49% 30.41 in 10.0 mi Variable 4.6 mph - N/A   Clear
3:53 PM 57.9 °F - 39.0 °F 49% 30.38 in 10.0 mi NNE 4.6 mph - N/A   Clear
4:53 PM 60.1 °F - 39.9 °F 47% 30.35 in 10.0 mi NNE 4.6 mph - N/A   Clear
5:53 PM 59.0 °F - 39.9 °F 49% 30.33 in 10.0 mi ENE 5.8 mph - N/A   Clear
6:53 PM 55.9 °F - 42.1 °F 60% 30.34 in 10.0 mi SE 10.4 mph - N/A   Clear
7:53 PM 53.1 °F - 39.0 °F 59% 30.36 in 10.0 mi SE 8.1 mph - N/A   Clear
8:53 PM 50.0 °F - 37.0 °F 61% 30.38 in 10.0 mi SE 5.8 mph - N/A   Clear
9:53 PM 46.9 °F - 32.0 °F 56% 30.38 in 10.0 mi SE 3.5 mph - N/A   Clear
10:53 PM 45.0 °F 42.6 °F 36.0 °F 71% 30.38 in 10.0 mi South 4.6 mph - N/A   Clear
11:53 PM 45.0 °F - 35.1 °F 68% 30.38 in 10.0 mi Calm Calm - N/A   Clear